Tracking 23764 objects as of 17-Oct-2021
HD Live streaming from Space Station
objects crossing your sky now

SECOR 5 (EGRS 5)

Track SECOR 5 (EGRS 5) now!
10-day predictions
SECOR 5 (EGRS 5) is classified as:


NORAD ID: 1506
Int'l Code: 1965-063A
Perigee: 1,147.1 km
Apogee: 2,423.1 km
Inclination: 69.2 °
Period: 122.2 minutes
Semi major axis: 8156 km
RCS: 0.4268 m2 (medium)
Launch date: August 10, 1965
Source: United States (US)
Launch site: WALLOPS ISLAND (WLPIS)
aabbcc
Your satellite tracking list
Your tracking list is empty




NASA's NSSDC Master Catalog

Two Line Element Set (TLE):
1  1506U 65063A   21289.33173712 -.00000028  00000-0  16078-4 0  9998
2  1506  69.2321 305.8807 0782262  77.1113  11.0631 11.78641075417728
Source of the keplerian elements: AFSPC